When you browse on this site, cookies collect data to enhance your experience and personalize the content and advertising you see.
Visit our Privacy Policy to learn more. By continuing to use the site, you agree to this use of cookies and data.
  • In Belgium
  • List of Countries
  • For 7 days
  • Water Temperature
  • Weather Map
  • Weather Widgets
  • user-avatar
    Login

    Hourly Weather Szolnok

    Today, 7 April, Tuesday

    Time Temperature Precipitation Wind Pressure Humidity
    00:00 +9°C° 0 mm 1 mps 767 mmHg 59%
    01:00 +8°C° 0 mm 1 mps 767 mmHg 61%
    02:00 +8°C° 0 mm 1 mps 767 mmHg 61%
    03:00 +7°C° 0 mm 1 mps 767 mmHg 60%
    04:00 +7°C° 0 mm 1 mps 767 mmHg 60%
    05:00 +8°C° 0 mm 1 mps 767 mmHg 58%
    06:00 +9°C° 0 mm 1 mps 768 mmHg 56%
    07:00 +9°C° 0 mm 1 mps 768 mmHg 54%
    08:00 +11°C° 0 mm 1 mps 768 mmHg 49%
    09:00 +13°C° 0 mm 1 mps 768 mmHg 43%
    10:00 +14°C° 0 mm 1 mps 768 mmHg 38%
    11:00 +16°C° 0 mm 1 mps 768 mmHg 37%
    12:00 +18°C° 0 mm 1 mps 768 mmHg 35%
    13:00 +19°C° 0 mm 1 mps 767 mmHg 34%
    14:00 +19°C° 0 mm 1 mps 767 mmHg 34%
    15:00 +19°C° 0 mm 1 mps 767 mmHg 33%
    16:00 +19°C° 0 mm 1 mps 766 mmHg 32%
    17:00 +16°C° 0 mm 1 mps 766 mmHg 36%
    18:00 +14°C° 0 mm 1 mps 766 mmHg 40%
    19:00 +12°C° 0 mm 1 mps 766 mmHg 44%
    20:00 +12°C° 0 mm 1 mps 766 mmHg 45%
    21:00 +11°C° 0 mm 1 mps 766 mmHg 46%
    22:00 +11°C° 0 mm 1 mps 766 mmHg 47%
    23:00 +10°C° 0 mm 1 mps 766 mmHg 48%

    Tomorrow, 8 April, Wednesday

    Time Temperature Precipitation Wind Pressure Humidity
    00:00 +10°C° 0 mm 1 mps 766 mmHg 49%
    01:00 +9°C° 0 mm 1 mps 766 mmHg 49%
    02:00 +9°C° 0 mm 1 mps 766 mmHg 51%
    03:00 +8°C° 0 mm 1 mps 766 mmHg 52%
    04:00 +7°C° 0 mm 0 mps 766 mmHg 53%
    05:00 +8°C° 0 mm 0 mps 766 mmHg 53%
    06:00 +9°C° 0 mm 0 mps 766 mmHg 52%
    07:00 +10°C° 0 mm 0 mps 766 mmHg 51%
    08:00 +12°C° 0 mm 0 mps 766 mmHg 47%
    09:00 +14°C° 0 mm 0 mps 766 mmHg 43%
    10:00 +16°C° 0 mm 0 mps 765 mmHg 39%
    11:00 +19°C° 0 mm 1 mps 765 mmHg 37%
    12:00 +19°C° 0 mm 1 mps 764 mmHg 34%
    13:00 +20°C° 0 mm 1 mps 764 mmHg 32%
    14:00 +20°C° 0 mm 1 mps 763 mmHg 32%
    15:00 +20°C° 0 mm 1 mps 763 mmHg 33%
    16:00 +20°C° 0 mm 1 mps 762 mmHg 33%
    17:00 +18°C° 0 mm 1 mps 762 mmHg 37%
    18:00 +15°C° 0 mm 1 mps 762 mmHg 42%
    19:00 +12°C° 0 mm 0 mps 761 mmHg 47%
    20:00 +12°C° 0 mm 0 mps 761 mmHg 48%
    21:00 +11°C° 0 mm 0 mps 761 mmHg 50%
    22:00 +10°C° 0 mm 0 mps 761 mmHg 52%
    23:00 +10°C° 0 mm 0 mps 761 mmHg 53%

    Day after tomorrow, 9 April, Thursday

    Time Temperature Precipitation Wind Pressure Humidity
    00:00 +11°C° 0 mm 1 mps 761 mmHg 54%
    01:00 +10°C° 0 mm 1 mps 761 mmHg 56%
    02:00 +10°C° 0 mm 1 mps 760 mmHg 57%
    03:00 +9°C° 0 mm 1 mps 760 mmHg 58%
    04:00 +8°C° 0 mm 0 mps 760 mmHg 59%
    05:00 +9°C° 0 mm 0 mps 760 mmHg 58%
    06:00 +10°C° 0 mm 0 mps 760 mmHg 56%
    07:00 +12°C° 0 mm 1 mps 760 mmHg 55%
    08:00 +14°C° 0 mm 1 mps 760 mmHg 51%
    09:00 +16°C° 0 mm 1 mps 760 mmHg 46%
    10:00 +18°C° 0 mm 2 mps 760 mmHg 42%
    11:00 +19°C° 0 mm 2 mps 760 mmHg 40%
    12:00 +19°C° 0 mm 2 mps 759 mmHg 37%
    13:00 +20°C° 0 mm 2 mps 759 mmHg 35%
    14:00 +20°C° 0 mm 2 mps 759 mmHg 36%
    15:00 +20°C° 0 mm 2 mps 758 mmHg 36%
    16:00 +20°C° 0 mm 3 mps 758 mmHg 37%
    17:00 +18°C° 0 mm 2 mps 757 mmHg 41%
    18:00 +16°C° 0 mm 2 mps 757 mmHg 46%
    19:00 +14°C° 0 mm 2 mps 757 mmHg 51%
    20:00 +14°C° 0 mm 2 mps 757 mmHg 51%
    21:00 +13°C° 0 mm 2 mps 757 mmHg 52%
    22:00 +11°C° 0 mm 3 mps 758 mmHg 53%
    23:00 +11°C° 0 mm 3 mps 757 mmHg 57%

    10 April, Friday

    Time Temperature Precipitation Wind Pressure Humidity
    00:00 +11°C° 0 mm 3 mps 757 mmHg 60%
    01:00 +10°C° 0 mm 3 mps 757 mmHg 64%
    02:00 +10°C° 0 mm 3 mps 757 mmHg 67%
    03:00 +10°C° 0 mm 3 mps 757 mmHg 69%
    04:00 +9°C° 0 mm 3 mps 757 mmHg 72%
    05:00 +10°C° 0 mm 3 mps 757 mmHg 70%
    06:00 +11°C° 0 mm 3 mps 758 mmHg 69%
    07:00 +12°C° 0 mm 3 mps 758 mmHg 68%
    08:00 +13°C° 0 mm 3 mps 758 mmHg 64%
    09:00 +16°C° 0 mm 3 mps 758 mmHg 60%
    10:00 +18°C° 0 mm 3 mps 758 mmHg 56%
    11:00 +18°C° 0 mm 3 mps 758 mmHg 55%
    12:00 +19°C° 0 mm 2 mps 758 mmHg 53%
    13:00 +19°C° 0 mm 2 mps 758 mmHg 52%
    14:00 +20°C° 0 mm 1 mps 758 mmHg 52%
    15:00 +20°C° 0 mm 1 mps 758 mmHg 51%
    16:00 +20°C° 0 mm 1 mps 758 mmHg 51%
    17:00 +17°C° 0 mm 2 mps 758 mmHg 57%
    18:00 +15°C° 0 mm 2 mps 758 mmHg 62%
    19:00 +13°C° 0 mm 3 mps 758 mmHg 67%
    20:00 +11°C° 0 mm 3 mps 759 mmHg 64%
    21:00 +10°C° 0 mm 3 mps 759 mmHg 61%
    22:00 +9°C° 0 mm 3 mps 759 mmHg 58%
    23:00 +9°C° 0 mm 3 mps 759 mmHg 60%

    11 April, Saturday

    Time Temperature Precipitation Wind Pressure Humidity
    00:00 +8°C° 0 mm 2 mps 759 mmHg 62%
    01:00 +8°C° 0 mm 2 mps 759 mmHg 64%
    02:00 +7°C° 0 mm 2 mps 759 mmHg 66%
    03:00 +7°C° 0 mm 2 mps 759 mmHg 67%
    04:00 +6°C° 0 mm 2 mps 759 mmHg 69%
    05:00 +7°C° 0 mm 2 mps 760 mmHg 67%
    06:00 +8°C° 0 mm 2 mps 760 mmHg 65%
    07:00 +9°C° 0 mm 2 mps 760 mmHg 63%
    08:00 +12°C° 0 mm 2 mps 760 mmHg 58%
    09:00 +13°C° 0 mm 2 mps 760 mmHg 52%
    10:00 +15°C° 0 mm 2 mps 760 mmHg 47%
    11:00 +16°C° 0 mm 1 mps 760 mmHg 45%
    12:00 +18°C° 0 mm 1 mps 759 mmHg 43%
    13:00 +18°C° 0 mm 0 mps 759 mmHg 42%
    14:00 +19°C° 0 mm 1 mps 759 mmHg 41%
    15:00 +19°C° 0 mm 1 mps 758 mmHg 40%
    16:00 +19°C° 0 mm 1 mps 758 mmHg 39%
    17:00 +18°C° 0 mm 1 mps 758 mmHg 43%
    18:00 +15°C° 0 mm 1 mps 758 mmHg 47%
    19:00 +14°C° 0 mm 1 mps 758 mmHg 51%
    20:00 +13°C° 0 mm 2 mps 758 mmHg 53%
    21:00 +13°C° 0 mm 2 mps 758 mmHg 55%
    22:00 +12°C° 0 mm 2 mps 758 mmHg 57%
    23:00 +12°C° 0 mm 2 mps 758 mmHg 59%

    12 April, Sunday

    Time Temperature Precipitation Wind Pressure Humidity
    00:00 +10°C° 0 mm 2 mps 758 mmHg 61%
    01:00 +10°C° 0 mm 2 mps 758 mmHg 63%
    02:00 +10°C° 0 mm 2 mps 757 mmHg 66%
    03:00 +10°C° 0 mm 1 mps 757 mmHg 68%
    04:00 +10°C° 0 mm 1 mps 757 mmHg 71%
    05:00 +11°C° 0 mm 1 mps 757 mmHg 70%
    06:00 +12°C° 0 mm 2 mps 757 mmHg 69%
    07:00 +13°C° 0 mm 2 mps 757 mmHg 68%
    08:00 +15°C° 0 mm 2 mps 757 mmHg 63%
    09:00 +17°C° 0 mm 3 mps 757 mmHg 57%
    10:00 +19°C° 0 mm 3 mps 757 mmHg 52%
    11:00 +20°C° 0 mm 3 mps 756 mmHg 50%
    12:00 +21°C° 0 mm 4 mps 756 mmHg 48%
    13:00 +22°C° 0 mm 4 mps 755 mmHg 46%
    14:00 +22°C° 0 mm 4 mps 755 mmHg 48%
    15:00 +22°C° 0 mm 4 mps 754 mmHg 50%
    16:00 +22°C° 0 mm 4 mps 754 mmHg 52%
    17:00 +20°C° 0 mm 4 mps 754 mmHg 58%
    18:00 +18°C° 0 mm 4 mps 753 mmHg 63%
    19:00 +17°C° 0 mm 4 mps 753 mmHg 68%
    20:00 +15°C° 0 mm 4 mps 753 mmHg 68%
    21:00 +14°C° 0 mm 4 mps 753 mmHg 67%
    22:00 +14°C° 0 mm 4 mps 753 mmHg 67%
    23:00 +14°C° 0 mm 4 mps 753 mmHg 66%
    Show more